{"data":{"norad_id":39159,"epoch":"2026-09-20T05:07:50.096064Z","epoch_age_seconds":42834,"freshness":"FRESH","line1":"1 39159U 13021A   26263.21377426  .00000042  00000+0  36617-4 0  9997","line2":"2 39159  98.3713 237.1825 0003532 199.3490 160.7556 14.23613670694637","mean_motion":14.2361367,"eccentricity":0.0003532,"inclination_deg":98.3713,"raan_deg":237.1825,"arg_perigee_deg":199.349,"mean_anomaly_deg":160.7556,"bstar":3.6617e-5,"rev_number":69463,"period_min":101.15103769691,"perigee_km":810.61754236964,"apogee_km":815.6974728098,"semimajor_km":7191.2945075897,"source":"CELESTRAK","updated_at":"2026-09-20T09:00:47.444002Z"}}